Temperature
13 13 13 14 12 10 11 12 12 13 14 16 18 18 17 18 18 20 22 22 22 21 20 18 17 17 16 16 16 16 16 16 16 16 16 16 15 15 15 15 14 14 14 14 14 13 13 13 13
12 13 13 13 11 11 11 11 12 13 16 18 18 18 18 19 21 22 23 22 21 20 19 18 17 16 16 16 16 16 16 16 16 15 15 15 15 15 14 14 14 14 14 13 13 13 13 13 13
12 12 13 11 10 12 12 12 13 15 17 17 18 18 18 20 21 22 23 22 21 20 18 17 16 16 16 15 15 15 15 15 15 15 15 15 14 14 14 14 14 13 13 13 13 13 13 13 13
11 12 11 10 11 12 13 14 14 15 16 17 17 17 19 20 21 21 22 21 20 19 18 17 16 16 15 15 15 15 15 15 15 15 14 14 14 14 13 13 13 13 13 13 13 12 12 12 12
11 11 10 11 11 12 12 14 14 14 15 16 16 15 18 19 20 21 21 20 19 19 17 16 16 16 15 15 15 15 15 15 15 14 14 14 14 13 13 13 13 13 13 13 12 12 12 12 12
10 10 10 11 12 12 12 14 14 13 14 16 16 16 18 19 19 20 20 19 18 18 17 16 16 15 15 15 15 15 15 14 14 14 14 13 13 13 13 13 13 13 12 12 12 12 12 12 11
9 10 10 11 11 12 13 14 13 13 13 15 16 15 17 19 19 19 18 17 17 16 16 15 15 15 15 15 15 15 14 14 14 14 14 13 13 13 13 13 12 12 12 12 12 11 11 11 11
9 9 10 10 10 11 13 14 15 14 14 16 16 15 16 18 18 17 17 16 15 15 15 15 15 15 15 15 15 14 14 14 14 13 13 13 13 12 12 12 12 12 12 12 11 11 11 11 11
9 9 9 10 10 11 13 13 14 15 15 16 16 17 17 17 17 16 15 14 14 14 15 15 15 15 14 14 14 14 14 14 13 13 13 13 12 12 12 12 12 12 12 11 11 11 11 11 11
8 8 10 11 11 11 12 13 14 14 13 14 15 16 16 16 15 15 14 14 14 14 15 14 15 14 14 14 14 14 13 13 13 13 12 12 12 12 12 12 11 11 11 11 11 11 11 11 11
7 8 9 10 11 11 11 12 13 13 12 13 14 15 15 15 14 14 14 14 14 15 14 14 14 14 14 14 14 13 13 13 13 12 12 12 12 12 11 11 11 11 11 11 11 11 11 11 10
7 7 8 9 10 10 10 11 12 12 13 14 14 15 14 14 14 14 14 14 14 14 14 14 14 14 14 14 13 13 13 13 13 12 12 12 12 12 11 11 11 11 11 11 11 11 11 10 10
6 7 8 9 9 9 10 10 10 11 13 13 13 14 13 13 13 13 14 13 13 13 14 14 14 14 14 14 13 13 13 13 12 12 12 12 12 12 12 11 11 11 11 11 11 11 10 10 10
6 7 7 7 8 8 9 9 10 11 12 12 13 13 13 13 13 13 13 13 13 13 13 13 13 14 13 13 13 13 13 13 12 12 12 12 12 12 12 11 11 11 11 11 11 10 10 10 10
6 5 6 7 8 8 8 8 9 11 11 12 12 12 13 13 13 13 13 13 13 13 13 13 13 13 13 13 13 13 13 12 12 12 12 12 12 12 12 11 11 11 11 10 10 10 10 10 9
5 4 5 7 8 8 8 7 9 11 11 11 11 12 12 12 12 13 13 13 13 13 13 13 13 13 13 13 13 13 13 12 12 12 12 12 12 12 11 11 11 11 10 10 10 10 10 9 9
4 4 4 6 7 7 7 7 9 10 10 10 11 11 11 12 12 13 13 13 13 13 13 13 13 13 13 13 12 13 12 12 12 12 12 12 12 11 11 11 11 11 10 10 10 10 10 9 9
4 4 4 5 6 7 6 7 8 9 9 10 10 11 11 11 12 13 13 13 13 13 13 13 13 13 13 12 12 12 12 12 12 12 12 12 12 11 11 11 11 11 10 10 10 10 9 9 9
4 4 4 5 7 6 6 7 8 8 8 8 9 10 11 11 12 12 12 13 13 13 13 13 13 13 13 12 12 12 12 12 12 12 12 12 12 11 11 11 11 11 10 10 10 9 9 9 9
4 4 4 5 6 6 6 6 7 8 8 9 9 10 11 11 12 12 12 12 13 13 13 13 13 13 13 13 12 12 12 12 12 12 12 12 12 11 11 11 11 11 10 10 10 10 9 9 9
3 4 4 4 5 5 5 5 6 7 8 9 10 10 11 11 12 12 12 12 12 13 13 13 13 13 13 13 12 12 12 11 11 11 12 12 12 12 12 11 11 11 11 10 10 10 9 9 9
3 4 5 5 4 4 5 5 5 7 8 8 9 10 10 11 12 12 12 12 13 13 13 13 13 13 13 12 12 12 12 12 12 12 12 12 12 12 12 11 11 11 11 11 10 10 10 9 9
3 4 4 4 4 3 4 4 5 6 7 8 8 9 10 11 12 12 12 13 13 13 14 14 13 13 13 13 13 12 12 13 12 12 12 12 12 12 12 11 11 11 11 11 10 10 10 10 9
4 4 4 4 3 3 4 4 4 5 6 7 8 9 9 10 11 12 12 13 13 13 13 14 13 13 13 13 13 13 13 13 13 13 13 13 13 12 12 12 11 11 11 11 11 10 10 10 9
3 2 2 2 2 3 4 4 4 6 6 7 8 8 9 10 10 11 11 12 13 13 13 13 13 13 13 13 13 13 13 13 13 14 14 13 13 13 13 12 12 11 11 11 11 10 10 10 10
2 2 2 2 2 3 4 4 5 5 6 7 7 8 8 9 10 10 11 12 12 13 13 13 13 13 13 13 13 14 14 13 14 14 14 14 14 14 14 13 12 12 11 11 11 10 10 10 10
2 2 2 2 2 2 3 4 5 5 6 6 6 7 7 8 8 9 10 11 12 13 13 13 14 14 14 14 14 14 13 13 14 14 14 14 14 14 14 13 13 12 12 11 11 10 10 10 10
3 2 2 2 2 3 3 3 4 4 5 5 5 5 6 7 7 8 9 10 11 12 13 14 14 14 14 14 14 14 14 14 14 14 14 14 14 14 14 13 13 12 12 11 11 10 10 10 10
2 2 1 1 1 2 3 4 5 4 4 5 5 5 6 6 6 7 9 10 11 12 13 13 14 14 14 14 14 14 14 14 14 13 14 14 14 14 13 13 13 12 12 11 11 11 10 10 10
2 1 1 1 1 1 2 4 5 4 4 4 4 4 5 5 6 6 8 9 10 11 12 13 13 14 14 14 14 14 14 14 13 13 13 13 13 13 13 13 13 12 12 11 11 11 10 10 10
Wind_Speed
4 3 3 4 2 3 9 8 6 5 6 6 5 6 8 9 7 6 2 10 10 16 20 25 27 27 26 25 24 23 23 23 23 23 22 22 21 21 20 20 19 19 19 18 18 18 18 18 18
1 3 4 3 5 9 9 8 11 11 7 1 2 5 5 8 6 4 2 9 12 16 18 22 26 27 26 25 24 24 24 24 23 23 22 22 21 21 20 20 19 19 18 18 18 18 17 17 18
1 2 4 4 8 13 9 7 13 10 9 5 4 4 5 7 5 5 5 10 13 15 16 21 27 27 26 26 25 25 24 24 23 23 22 21 21 20 20 19 19 19 18 18 17 17 17 17 17
1 2 2 8 20 14 9 4 4 4 5 6 4 6 6 5 4 4 7 13 15 15 15 21 27 27 26 26 25 25 25 24 23 23 22 21 21 20 20 19 19 19 18 17 17 17 17 17 17
1 3 7 15 23 10 8 7 4 4 3 2 2 6 7 5 1 4 11 15 16 15 14 21 27 27 27 26 26 25 24 24 23 22 22 21 21 20 20 20 19 19 18 17 17 17 16 17 16
2 4 11 22 21 11 9 8 7 9 8 5 3 5 7 3 1 6 10 12 13 15 14 18 26 26 26 26 26 25 24 24 23 23 22 22 21 21 20 20 19 18 18 17 17 16 16 16 16
5 7 15 16 16 13 10 7 10 12 13 9 5 5 6 4 2 7 9 9 9 11 12 13 18 22 25 25 26 25 24 24 23 22 22 22 21 21 20 20 19 18 17 17 16 16 15 15 15
4 6 14 14 15 14 6 6 7 11 12 7 7 7 7 4 4 8 9 9 9 10 11 11 12 16 18 21 24 24 24 24 23 22 22 21 21 21 20 19 18 18 17 17 16 16 15 15 14
3 10 20 16 11 7 4 7 7 6 7 6 6 7 5 4 9 11 10 10 12 13 10 11 12 12 14 16 21 23 23 23 23 21 22 21 17 17 18 18 18 17 17 16 16 15 15 14 13
7 16 22 11 6 6 6 8 7 5 8 8 6 4 2 7 12 14 16 18 19 18 16 13 13 13 13 13 15 16 17 18 18 18 19 16 15 15 16 18 17 17 17 16 15 15 14 12 12
7 13 12 11 9 8 10 10 8 9 12 10 8 5 5 9 12 15 17 19 20 19 17 15 15 14 13 10 10 10 11 13 15 17 18 16 15 14 14 12 13 14 14 12 13 12 12 11 10
9 13 12 11 10 11 12 10 11 14 15 8 8 7 8 12 15 16 17 18 16 16 17 16 15 14 13 11 9 9 8 9 10 15 18 15 9 9 9 8 10 10 10 11 11 10 10 10 10
13 13 14 14 13 13 15 16 14 17 13 9 8 9 11 13 15 15 15 15 16 17 17 17 16 16 14 12 10 10 9 10 12 14 17 16 10 8 8 7 9 9 10 10 9 8 8 8 8
9 11 13 13 15 13 17 20 16 17 9 9 10 12 13 14 15 14 14 16 17 19 18 17 17 16 15 12 11 10 10 11 13 13 15 17 14 10 8 7 7 8 10 10 9 8 6 5 6
8 12 14 12 12 9 10 18 19 17 10 12 12 13 14 14 14 16 16 17 18 18 18 18 18 17 16 15 13 11 10 12 11 12 16 17 16 14 10 8 6 8 10 11 9 7 7 5 4
5 9 11 8 8 8 9 20 15 9 11 14 13 13 13 13 14 14 14 15 15 16 18 18 17 18 17 15 13 11 11 11 11 13 15 16 17 16 12 8 7 10 11 9 6 5 4 4 4
5 9 12 11 7 6 10 15 10 6 10 14 13 12 12 12 13 13 14 15 16 16 17 18 18 19 18 15 13 11 11 11 11 13 13 15 17 18 13 8 8 12 8 6 6 4 4 4 4
8 10 11 12 6 8 13 17 14 10 10 13 12 12 12 13 15 12 12 14 16 16 16 18 18 18 17 14 11 10 10 10 10 11 13 16 16 17 14 9 10 11 7 6 5 5 3 4 4
12 14 17 17 12 11 16 20 18 13 12 13 12 12 12 14 13 10 11 12 13 15 17 19 19 18 16 14 14 14 13 12 11 10 14 16 16 17 13 9 9 9 8 8 8 5 5 3 3
13 15 16 15 10 10 13 19 17 14 14 14 14 13 13 12 10 11 11 13 15 17 18 18 20 20 19 16 14 11 10 9 10 9 12 16 17 17 15 11 10 9 8 9 8 6 4 3 3
13 12 12 14 13 9 10 13 13 11 13 14 14 13 11 13 12 12 12 14 15 17 19 18 19 20 20 17 13 11 9 8 9 11 12 13 17 17 15 14 11 10 10 10 9 9 8 5 3
13 9 12 13 10 6 3 7 8 8 10 12 13 12 12 12 11 11 12 13 15 17 17 18 19 20 20 19 17 18 15 14 12 12 11 13 15 16 16 15 13 12 10 11 11 9 6 7 5
8 10 11 11 10 9 6 6 8 4 7 10 11 11 11 11 11 11 13 13 15 16 16 17 18 19 20 20 21 20 16 12 8 10 13 13 13 14 15 15 14 13 11 11 11 10 8 7 6
8 7 7 4 3 6 7 7 7 4 7 7 7 8 8 8 8 9 10 11 12 13 14 15 18 19 20 21 22 22 20 16 14 14 15 14 11 12 15 15 14 13 11 12 12 12 11 9 7
3 2 2 3 2 6 4 5 7 6 6 7 7 6 6 6 5 6 7 8 10 12 14 16 18 19 20 21 22 23 22 20 19 17 17 15 12 12 16 15 14 13 12 12 11 12 11 11 10
3 1 2 3 4 4 3 6 5 6 6 6 5 5 5 4 5 5 7 8 9 11 14 16 19 19 19 21 22 21 20 17 15 16 15 16 14 14 15 16 14 14 13 13 12 11 11 10 10
3 3 3 3 3 4 5 5 6 7 9 9 8 7 7 6 5 5 6 7 8 9 13 16 19 19 19 20 20 19 20 19 17 16 15 14 12 12 15 16 15 14 14 14 13 11 11 11 11
3 3 2 1 2 4 5 4 4 8 11 11 10 9 9 9 8 7 6 7 7 8 10 13 17 20 19 19 18 17 18 19 16 15 17 16 14 14 16 16 16 15 14 14 13 11 11 12 10
2 1 1 2 2 3 4 4 2 6 9 10 10 10 10 10 9 8 7 7 7 7 8 10 14 16 17 18 17 17 17 17 16 16 17 16 15 15 17 17 16 16 15 15 14 12 13 13 11
2 2 1 1 4 3 4 5 4 6 9 11 12 12 12 11 9 8 7 6 5 5 6 9 12 14 16 17 16 17 16 16 17 17 16 15 15 16 16 16 16 16 15 15 15 14 14 14 13
Wind_Direction
318 89 84 71 70 235 234 227 210 215 221 218 193 185 196 196 183 217 289 154 152 159 167 169 167 165 163 162 159 156 153 149 146 144 142 139 137 134 131 127 125 121 118 117 116 115 113 110 107
352 102 77 97 182 226 241 216 217 218 216 215 222 217 223 242 235 242 190 167 157 160 166 167 166 164 164 163 161 158 155 151 148 145 144 142 140 136 133 129 126 122 119 118 117 116 115 112 109
314 129 149 172 212 221 226 214 223 231 239 250 262 241 223 236 228 221 200 164 156 161 165 166 166 165 165 164 163 160 156 153 150 147 146 145 143 140 136 132 128 124 122 121 120 120 118 114 112
77 94 171 218 232 224 214 214 205 234 254 228 224 272 262 256 235 212 165 160 158 163 163 167 166 166 166 165 163 159 157 155 152 149 148 148 145 142 138 134 130 127 125 125 125 123 121 118 115
91 162 221 235 239 234 226 239 251 258 261 218 210 267 276 299 311 163 159 164 164 164 164 168 168 168 167 165 163 160 159 157 155 152 152 150 147 143 138 134 132 131 131 130 128 124 123 120 117
200 194 225 237 241 236 230 228 247 257 258 259 242 250 260 300 147 168 165 167 166 165 165 168 170 169 168 166 163 162 161 159 156 154 153 151 147 142 139 138 137 136 135 134 131 127 126 123 119
204 221 236 244 251 245 235 213 226 243 252 242 212 243 273 288 208 160 157 158 162 166 165 169 171 170 168 167 164 165 163 159 156 156 154 151 148 146 144 142 141 140 139 137 134 131 128 125 121
203 234 246 243 247 251 234 222 225 225 247 233 192 216 246 253 151 140 145 156 164 171 171 169 167 166 165 165 165 164 162 159 158 157 152 149 149 149 147 144 144 142 140 138 136 133 129 126 123
197 235 240 236 239 251 211 240 252 240 236 232 219 224 242 153 144 147 157 170 176 180 178 171 167 164 161 162 164 162 161 160 158 155 149 146 146 145 144 144 146 144 143 141 138 134 126 122 122
208 236 243 245 242 254 251 248 254 262 254 253 261 271 186 158 167 173 178 182 185 186 184 177 171 166 161 162 161 161 159 158 154 150 145 141 139 139 141 145 146 146 144 142 138 133 120 112 112
228 244 263 263 269 271 267 263 256 248 252 241 241 237 194 187 189 190 192 192 192 188 184 180 175 169 164 160 156 156 152 149 146 145 142 139 135 135 137 140 142 141 138 129 122 111 110 113 115
251 260 268 271 277 276 272 270 260 245 250 253 248 230 205 202 203 201 200 200 196 190 187 181 175 171 167 160 159 155 151 150 150 150 147 143 138 136 137 133 133 131 127 118 114 111 112 113 120
248 260 265 270 275 275 275 266 266 260 259 262 250 233 219 213 213 211 208 204 200 195 190 183 177 174 169 163 162 160 157 155 152 153 153 151 148 147 142 139 137 134 132 127 122 117 114 112 116
265 273 273 273 271 269 267 268 263 260 257 255 244 234 228 222 219 216 210 206 203 199 193 185 182 177 171 169 166 163 160 157 155 158 159 157 155 153 149 146 143 143 143 137 132 128 121 115 120
276 283 278 258 253 250 264 267 252 257 251 250 246 240 234 230 223 217 211 207 204 201 194 189 185 179 175 171 168 165 163 161 161 162 163 162 160 158 155 153 153 153 147 136 126 118 114 111 111
269 267 267 256 236 238 231 258 261 254 246 252 251 245 239 235 229 221 213 210 205 201 195 192 189 183 179 174 170 167 166 164 165 165 167 166 165 163 159 159 160 156 148 140 131 125 115 115 117
240 253 260 275 239 239 232 260 272 266 260 257 254 248 243 238 238 229 215 209 204 200 196 192 191 185 181 176 171 167 167 168 168 168 170 171 169 168 165 164 162 156 148 143 143 131 129 132 128
259 263 269 269 270 264 263 268 276 274 260 258 254 249 241 237 236 232 217 208 203 200 196 194 190 187 181 175 169 167 169 172 171 173 175 173 173 171 167 165 162 158 152 150 147 135 119 127 131
275 277 276 278 281 276 264 268 272 269 259 258 256 249 241 237 234 230 223 207 199 198 197 193 191 187 182 180 180 180 183 181 178 178 176 176 175 174 171 168 164 165 166 163 151 134 127 121 127
269 275 278 286 285 278 272 272 271 260 252 250 251 246 240 240 233 225 223 210 200 198 197 194 192 189 188 188 185 183 177 180 180 177 178 180 178 177 179 172 174 172 166 161 161 146 136 136 150
272 263 268 278 298 282 275 276 258 253 244 245 245 241 235 235 230 222 219 212 202 199 197 198 194 191 192 187 179 172 167 166 178 184 186 185 182 182 181 179 175 175 174 176 174 165 154 155 173
279 265 268 277 286 284 252 282 272 254 252 247 246 241 232 232 230 222 217 213 205 203 199 198 197 193 192 188 183 182 186 190 192 187 185 183 184 184 183 180 179 179 180 178 179 174 163 154 166
266 283 277 272 271 275 243 255 282 251 252 255 248 243 238 232 227 220 219 217 209 203 200 198 197 196 192 192 189 188 194 193 176 175 179 182 185 185 184 183 182 183 183 181 178 175 173 168 167
286 293 289 277 257 261 228 219 280 251 250 270 263 253 248 239 234 229 224 219 213 203 199 196 196 198 194 194 194 193 194 186 178 181 185 186 186 188 187 185 186 186 184 183 183 182 182 182 175
326 342 340 330 257 254 229 218 256 274 281 270 275 269 255 243 241 237 227 221 216 205 200 197 197 199 196 196 198 199 197 191 189 187 188 186 187 191 192 188 188 188 186 184 181 182 188 186 185
285 235 228 261 256 289 250 237 260 294 309 315 311 304 295 270 251 246 238 226 220 210 204 199 199 200 197 197 201 201 198 196 196 190 189 191 193 193 186 187 189 188 185 184 183 186 190 190 194
295 268 253 258 278 273 260 283 303 334 342 342 339 338 329 315 298 273 258 240 226 216 210 204 201 201 198 199 200 200 199 198 197 191 189 192 190 185 182 186 187 186 185 184 183 190 191 190 197
235 284 333 289 284 276 287 282 304 341 340 342 345 340 333 329 318 303 277 253 238 225 216 208 204 202 199 198 200 201 199 199 195 190 192 192 188 182 181 185 187 185 185 185 186 189 189 191 196
297 334 314 277 267 276 298 290 314 337 337 338 334 331 332 329 323 315 300 272 248 233 219 210 206 203 200 198 199 199 198 196 192 192 193 191 186 182 184 186 186 187 187 187 189 191 187 193 195
223 224 153 290 289 269 277 277 321 343 345 344 339 336 334 330 327 323 316 302 273 250 231 216 209 204 201 198 197 200 196 193 194 194 193 189 186 185 186 184 185 188 188 188 190 191 190 193 195
Height
1486 1488 1490 1492 1495 1498 1492 1483 1477 1474 1471 1467 1466 1467 1467 1467 1469 1468 1457 1455 1457 1460 1464 1469 1473 1478 1483 1487 1491 1494 1498 1501 1504 1506 1509 1511 1514 1516 1518 1520 1521 1523 1524 1526 1527 1528 1529 1530 1531
1484 1486 1489 1490 1494 1494 1483 1474 1472 1466 1463 1463 1464 1463 1463 1460 1458 1456 1454 1454 1456 1459 1463 1467 1472 1477 1482 1486 1490 1494 1497 1500 1503 1506 1509 1511 1514 1516 1518 1520 1521 1523 1524 1526 1527 1528 1530 1531 1532
1481 1483 1486 1486 1484 1476 1471 1465 1462 1460 1461 1462 1461 1460 1459 1456 1455 1454 1453 1453 1455 1459 1462 1466 1472 1476 1481 1486 1490 1493 1497 1500 1503 1506 1508 1511 1513 1516 1518 1520 1521 1523 1524 1526 1527 1528 1530 1531 1532
1480 1482 1482 1480 1468 1460 1460 1459 1458 1459 1459 1459 1460 1458 1456 1454 1453 1452 1451 1452 1454 1457 1462 1466 1471 1476 1480 1485 1489 1493 1496 1500 1503 1505 1508 1511 1513 1515 1518 1519 1521 1523 1524 1526 1527 1529 1530 1531 1533
1477 1477 1478 1469 1457 1455 1456 1456 1457 1458 1458 1457 1458 1456 1452 1451 1450 1450 1450 1451 1453 1456 1461 1465 1470 1475 1480 1484 1488 1492 1495 1499 1502 1505 1508 1510 1513 1515 1517 1519 1521 1523 1524 1526 1527 1529 1530 1532 1533
1474 1472 1470 1457 1450 1451 1453 1455 1457 1456 1455 1456 1457 1454 1449 1449 1449 1448 1449 1450 1453 1456 1460 1465 1470 1474 1479 1483 1487 1491 1495 1498 1501 1504 1507 1510 1512 1515 1517 1519 1521 1523 1524 1526 1528 1529 1531 1533 1534
1470 1467 1458 1452 1449 1449 1450 1452 1453 1452 1452 1452 1454 1452 1447 1447 1447 1447 1448 1450 1453 1457 1461 1464 1469 1473 1478 1482 1486 1490 1494 1497 1500 1504 1506 1509 1512 1514 1516 1518 1521 1523 1524 1526 1528 1530 1532 1533 1535
1465 1464 1453 1450 1448 1446 1447 1448 1447 1448 1447 1448 1450 1448 1445 1445 1445 1446 1448 1450 1453 1457 1461 1464 1468 1472 1476 1481 1485 1488 1492 1496 1499 1503 1505 1508 1511 1514 1516 1518 1520 1523 1524 1526 1528 1530 1532 1534 1535
1462 1461 1445 1444 1446 1445 1444 1445 1444 1444 1443 1443 1443 1443 1443 1443 1443 1444 1447 1450 1453 1456 1460 1463 1466 1470 1474 1479 1483 1487 1491 1494 1498 1501 1504 1507 1510 1513 1515 1517 1520 1522 1524 1526 1529 1531 1532 1534 1536
1457 1450 1437 1440 1442 1442 1442 1442 1442 1441 1439 1438 1439 1439 1440 1440 1441 1442 1443 1445 1448 1452 1456 1460 1464 1468 1472 1477 1481 1485 1489 1493 1496 1500 1503 1506 1509 1512 1514 1517 1520 1522 1524 1527 1529 1531 1532 1534 1536
1450 1443 1439 1440 1440 1440 1439 1438 1439 1438 1435 1435 1435 1435 1436 1437 1437 1438 1439 1441 1443 1447 1451 1456 1461 1465 1469 1474 1478 1482 1486 1490 1494 1498 1501 1504 1508 1511 1513 1516 1519 1521 1524 1526 1528 1530 1532 1535 1537
1447 1441 1440 1438 1439 1439 1437 1435 1434 1432 1429 1432 1433 1432 1432 1432 1433 1434 1436 1438 1442 1445 1448 1453 1457 1462 1466 1471 1475 1479 1483 1487 1491 1495 1499 1502 1506 1509 1512 1515 1518 1521 1523 1525 1528 1530 1533 1535 1537
1443 1439 1437 1437 1436 1435 1433 1430 1428 1424 1426 1428 1428 1428 1428 1428 1429 1431 1433 1436 1439 1442 1445 1449 1454 1458 1463 1468 1472 1477 1481 1485 1489 1493 1497 1501 1504 1507 1511 1514 1517 1520 1523 1525 1528 1530 1533 1535 1537
1439 1436 1434 1433 1432 1431 1429 1424 1424 1416 1422 1423 1422 1422 1422 1424 1425 1427 1429 1432 1435 1438 1442 1446 1450 1455 1459 1464 1469 1473 1478 1482 1487 1491 1495 1499 1503 1506 1510 1513 1516 1520 1522 1525 1528 1530 1532 1535 1537
1438 1436 1430 1427 1426 1425 1426 1419 1414 1413 1417 1417 1416 1416 1417 1418 1420 1421 1423 1426 1429 1434 1438 1442 1447 1451 1456 1461 1466 1470 1475 1480 1484 1488 1493 1497 1501 1505 1508 1512 1515 1519 1522 1524 1527 1530 1532 1535 1537
1437 1435 1429 1421 1421 1420 1425 1413 1407 1409 1411 1410 1410 1410 1411 1412 1414 1416 1419 1422 1425 1430 1434 1439 1443 1447 1452 1457 1462 1467 1472 1477 1482 1486 1490 1495 1499 1503 1507 1511 1514 1517 1520 1523 1526 1529 1531 1534 1536
1435 1433 1427 1420 1416 1416 1417 1409 1403 1405 1406 1404 1404 1404 1405 1406 1408 1410 1414 1417 1421 1425 1429 1434 1439 1443 1448 1454 1459 1464 1469 1474 1479 1483 1488 1492 1496 1501 1505 1509 1512 1516 1519 1522 1525 1528 1530 1533 1535
1432 1429 1423 1419 1414 1414 1412 1406 1401 1401 1402 1400 1399 1398 1399 1400 1401 1404 1407 1411 1416 1420 1425 1430 1435 1439 1445 1451 1456 1461 1466 1471 1475 1480 1484 1489 1493 1498 1502 1507 1510 1514 1517 1520 1523 1527 1530 1532 1535
1428 1426 1421 1415 1412 1412 1407 1401 1397 1396 1396 1395 1393 1393 1392 1393 1396 1399 1402 1406 1410 1415 1419 1424 1429 1434 1440 1445 1450 1455 1460 1465 1471 1476 1481 1485 1490 1495 1499 1503 1507 1511 1514 1518 1522 1525 1528 1530 1533
1427 1424 1418 1412 1408 1408 1403 1397 1392 1390 1389 1387 1387 1386 1387 1388 1390 1393 1396 1400 1404 1408 1413 1418 1424 1428 1434 1439 1445 1451 1456 1462 1467 1472 1477 1481 1486 1491 1496 1500 1504 1508 1512 1516 1519 1522 1525 1528 1531
1423 1421 1416 1412 1407 1405 1404 1395 1387 1381 1380 1380 1380 1380 1381 1382 1384 1387 1390 1394 1397 1402 1406 1412 1417 1422 1428 1434 1441 1448 1454 1458 1463 1467 1471 1476 1482 1487 1492 1496 1501 1505 1508 1512 1516 1520 1523 1525 1529
1419 1413 1411 1409 1410 1406 1404 1398 1384 1379 1376 1374 1374 1374 1374 1376 1379 1381 1384 1388 1391 1395 1400 1406 1412 1417 1423 1429 1434 1440 1444 1448 1453 1459 1465 1472 1477 1483 1488 1492 1497 1501 1505 1509 1513 1517 1520 1523 1526
1416 1412 1409 1407 1408 1407 1403 1402 1386 1378 1374 1370 1368 1368 1369 1371 1373 1375 1378 1382 1386 1390 1395 1400 1406 1412 1417 1422 1428 1433 1439 1444 1450 1456 1462 1467 1473 1478 1483 1488 1493 1497 1501 1505 1509 1513 1517 1520 1523
1414 1411 1406 1405 1407 1407 1398 1400 1389 1379 1371 1367 1365 1364 1365 1366 1368 1370 1373 1377 1381 1385 1390 1394 1400 1405 1411 1416 1421 1427 1433 1439 1445 1450 1456 1462 1467 1473 1478 1483 1488 1492 1497 1501 1505 1509 1513 1516 1519
1416 1417 1417 1416 1413 1406 1392 1391 1385 1374 1369 1366 1363 1362 1362 1364 1365 1367 1369 1372 1375 1379 1384 1388 1393 1399 1404 1410 1415 1421 1427 1433 1438 1444 1450 1455 1461 1466 1471 1477 1482 1487 1492 1497 1501 1505 1509 1512 1515
1418 1419 1420 1418 1412 1401 1391 1387 1379 1372 1368 1364 1363 1361 1360 1360 1362 1363 1364 1367 1370 1373 1378 1382 1387 1392 1398 1403 1409 1415 1422 1428 1433 1439 1445 1450 1455 1461 1466 1472 1477 1482 1487 1492 1497 1501 1505 1508 1511
1419 1417 1415 1415 1411 1406 1394 1386 1376 1370 1366 1363 1362 1360 1359 1358 1358 1359 1360 1362 1364 1367 1371 1376 1380 1386 1391 1396 1402 1408 1415 1421 1427 1433 1439 1445 1450 1456 1462 1467 1473 1478 1483 1487 1492 1496 1500 1503 1507
1419 1417 1417 1416 1414 1404 1393 1388 1383 1374 1370 1365 1363 1361 1358 1357 1355 1355 1356 1357 1359 1362 1366 1370 1375 1379 1385 1390 1396 1401 1408 1415 1421 1428 1433 1439 1445 1451 1457 1462 1467 1473 1477 1482 1487 1491 1495 1498 1502
1420 1419 1419 1418 1416 1410 1400 1387 1378 1376 1373 1369 1366 1363 1359 1356 1354 1352 1352 1353 1355 1357 1360 1364 1369 1374 1379 1384 1389 1395 1402 1408 1415 1421 1427 1433 1439 1445 1451 1456 1462 1467 1472 1476 1481 1485 1489 1493 1496
1419 1420 1420 1423 1419 1414 1405 1390 1376 1376 1374 1371 1368 1364 1360 1356 1353 1350 1349 1349 1350 1352 1354 1358 1362 1367 1372 1378 1383 1389 1395 1402 1408 1415 1421 1427 1433 1439 1445 1451 1456 1462 1466 1471 1475 1479 1483 1487 1490